Погода в Верхней Санибе

Россия / Республика Северная Осетия — Алания     43°00′48″N   44°33′31″E
темп.,
°C
ветер,
м/с
пор.,
м/с
влажн.,
%
обл.,
%
осадки,
мм/ч
давл.,
гПа
погр.,
м
3 марта, ср
ср300:00−1ююв12580 0.0 102626
03:00−2ююз01590 0.0 102527
06:00−3ю11590 0.0 102322
09:00+2всв124135 0.0 1020277
12:00+3ссз4449100 0.0 1019869
15:00+2сз336790 0.1 1019783
18:00−1сз248497 0.6 1021223
21:00−2юз249598 4.8 1025266
4 марта, чт
чт400:00−3юз2391100 1.9 1026158
03:00−4ю118296 2.0 102726
06:00−5ююв227476 0.0 102931
09:00−2всв227155 0.0 1028430
12:00+1св22720 0.0 1026536
15:00+2ссв22654 0.0 1024650
18:00−1всв117238 0.0 102571
21:00−2ю126119 0.0 102632
5 марта, пт
пт500:00−2ююз11560 0.0 102522
03:00−3ю11550 0.0 102321
06:00−3ю11520 0.0 102221
09:00+2ссв11520 0.0 1021145
12:00+5ссв11510 0.0 1019327
15:00+6с11520 0.0 1018356
18:00+2ююв01620 0.0 102025
21:00+2ю22510 0.0 102222
6 марта, сб
сб600:00+2ю22440 0.0 102123
03:00+1ю22430 0.0 102123
06:00+2ю223916 0.0 102023
09:00+7вюв114135 0.0 101959
12:00+11ссв22370 0.0 1016345
15:00+11с11361 0.0 1015502
18:00+6ююз2246100 0.0 101525
21:00+4ю2242100 0.0 101628
7 марта, вс
вс700:00+3ююз2247100 0.0 101635
03:00+2юз125786 0.0 101625
06:000зюз128124 0.0 101865
09:00−3зюз239462 5.3 1020213
12:00−1ссз3388100 0.9 1020538
15:00−1с3490100 2.5 1020451
18:00−3ссв2297100 2.0 1023224
21:00−4ссв2296100 3.4 1025184